GSAT0219 (GALILEO 23)

Last updated on Sun Jun 21 2026 00:02:55 GMT+0000 (Coordinated Universal Time)

1 43566U 18060C 26171.43843957 -.00000095 00000+0 00000+0 0 9992 2 43566 57.1711 341.6976 0001949 321.5861 38.3948 1.70475997 49246
UTC large
Height (km)
Speed (km/s)
/
Latitude / Longitude
Inclination (degrees)
Orbital Period (minutes)
Azimuth
Elevation
Range (km)
Doppler Factor

Next 0 passes for location: London (51.5072 / 0.1276)

No passes found over London.
GSAT0219 (GALILEO 23)